{"data":{"norad_id":38745,"epoch":"2026-09-20T01:07:14.020320Z","epoch_age_seconds":69044,"freshness":"FRESH","line1":"1 38745U 12044B   26263.04669005  .00037132  57836-5  63584-3 0  9996","line2":"2 38745  49.8219 115.5466 1538169  70.3374 305.6601 12.50319549572641","mean_motion":12.50319549,"eccentricity":0.1538169,"inclination_deg":49.8219,"raan_deg":115.5466,"arg_perigee_deg":70.3374,"mean_anomaly_deg":305.6601,"bstar":0.00063584,"rev_number":57264,"period_min":115.17055789072,"perigee_km":257.03483176024,"apogee_km":2669.2823988144,"semimajor_km":7841.2956152873,"source":"CELESTRAK","updated_at":"2026-09-20T09:00:13.863259Z"}}